Regional Weather Roundup
Issued by NWS Goodland, KS

Home | Current Version | Previous Version | Graphics & Text | Print | Product List | Glossary On
Versions: 1 2 3 4 5 6 7 8 9 10 11 12 13 14 15 16 17 18 19 20 21 22 23 24 25 26 27 28 29 30 31 32 33 34 35 36 37 38 39 40 41 42 43 44 45 46 47 48 49 50
000
ASUS43 KGLD 170608
RWRGLD

GOODLAND FORECAST AREA HOURLY WEATHER ROUNDUP
NATIONAL WEATHER SERVICE GOODLAND KS
1200 AM MDT THU APR 17 2014

...OFFICIAL OBSERVATIONS...

CITY           SKY/WX    TMP DP  RH WIND       PRES   REMARKS
GOODLAND KS    CLOUDY    39  34  82 E7        30.15R
HILL CITY KS   FAIR      38  29  70 NE12      30.18R
IMPERIAL NEB   CLOUDY    34  29  82 NE9       30.17S
MCCOOK NEB     CLOUDY    33  28  81 NE8       30.19R
AKRON CO       CLOUDY    34  31  88 E6        30.12R
BURLINGTON CO  CLOUDY    40  32  73 E6        30.13R
LIMON CO       CLOUDY    37  30  75 SE5       30.12R
$$

...UNOFFICIAL OBSERVATIONS...

CITY           SKY/WX    TMP DP  RH WIND       PRES   REMARKS
COLBY KS       CLEAR     37  36  93 NE9       30.16R
GOVE KS          N/A     44  32  63 NE6         N/A
LENORA KS        N/A     35  32  89 N9          N/A
LEOTI KS         N/A     47  32  56 E6          N/A
NORTON KS      PTCLDY    32  27  80 N8        30.18R
SHARON SPRINGS   N/A     43  34  70 NE5         N/A
ST FRANCIS KS  CLOUDY    36  32  87 E6        30.15R
WAKEENEY KS      N/A     40  28  63 MISG        N/A
KIT CARSON CO    N/A     43  32  65 MISG        N/A
$$



USA.gov is the U.S. government's official web portal to all federal, state and local government web resources and services.